sim
Sign-in with your pilot id or email,
or register
Callsign
Passwort

Schedule Details

Flight Number: RYR5797 (2)
Departure: Frankfurt Hahn Airport (EDFH) at 17:25
Arrival: Thessaloniki International Airport (LGTS) at 20:00
Route: Ryanair Passenger Schedule. Enter filed route here before submitting Pirep.

Weather Information
Getting current METAR information for EDFH 230720Z 12003KT 080V170 CAVOK 18/10 Q1027
Getting current METAR information for LGTS 230720Z 27005KT CAVOK 29/19 Q1020 NOSIG

Schedule Frequency

Route Map